Volver al catálogo

CZ-4C DEB

ActivoSSO
NORAD 37569·DEBRIS·🇨🇳 China

Lanzado Aug 9, 2010 desde Taiyuan Satellite Launch Center

Loading…

Próximos Pases (próximas 24 horas)

TLE

ActualizadoSource: Space-Track

Época: Sep 14, 2026, 19:41 UTC

1 37569U 10038E   26257.82046761  .00013264  00000-0  86343-3 0  9991
2 37569  97.9846  35.1900 0069532  31.4703 329.0654 15.06075403853046

Sigue CZ-4C DEB en tiempo real con AllMySat

Download on the App Store